Kenansville, NC

9:49 PM EDT on October 19, 2019 (GMT -0400)
Duplin County

Weather History for KDPL - August, 2019

Change the Weather History Date:

Friday, August 16, 2019

  Actual Average (KOAJ) Record (KOAJ)
Temperature  
Mean Temperature 76 °F -  
Max Temperature 78 °F 86 °F 96 °F (2005)
Min Temperature 73 °F 66 °F 62 °F (2015)
Cooling Degree Days 10    
Growing Degree Days 26 (Base 50)    
Moisture  
Dew Point 76 °F    
Average Humidity 98    
Maximum Humidity 100    
Minimum Humidity 89    
Precipitation  
Precipitation 0.91 in - - ()
Sea Level Pressure  
Sea Level Pressure 29.98 in    
Wind  
Wind Speed 1 mph (SE)    
Max Wind Speed 7 mph    
Max Gust Speed -    
Visibility 6 miles    
Events Rain    
Averages and records for this station are not official NWS values.
T = Trace of Precipitation, MM = Missing Value Source: NWS Daily Summary

Daily Weather History Graph

Daily Weather History Graph

Search for Another Location

Airport or City:

Astronomy

Aug. 16, 2019 Rise Set
Actual Time 6:32 AM EDT 7:59 PM EDT
Civil Twilight 6:05 AM EDT 8:26 PM EDT
Nautical Twilight 5:33 AM EDT 8:58 PM EDT
Astronomical Twilight 5:00 AM EDT 9:31 PM EDT
Moon 8:59 PM EDT (8/16) 7:22 AM EDT (8/16)
Length of Visible Light 14h 20m
Length of Day
13h 26m
Full, 99% of the Moon is Illuminated
Aug 16
Full
Aug 23
Last Quarter
Aug 30
New
Sep 5
First Quarter
Sep 14
Full

Hourly Weather History & Observations

Time (EDT) Temp. Dew Point Humidity Pressure Visibility Wind Dir Wind Speed Gust Speed Precip Events Conditions
12:15 AM 75.2 °F 75.2 °F 100% 29.96 in 4.0 mi Calm Calm - N/A   Clear
12:35 AM 75.2 °F - N/A% 29.96 in 4.0 mi Calm Calm - N/A   Clear
12:55 AM 73.4 °F - N/A% 29.96 in 3.5 mi Calm Calm - N/A   Clear
1:35 AM 73.4 °F - N/A% 29.97 in 3.0 mi Calm Calm - N/A   Clear
1:55 AM 73.4 °F - N/A% 29.97 in 3.0 mi Calm Calm - N/A   Mostly Cloudy
2:15 AM 75.2 °F - N/A% 29.97 in 3.5 mi Calm Calm - N/A   Overcast
2:35 AM 75.2 °F - N/A% 29.96 in 3.5 mi ESE 3.5 mph - N/A   Overcast
2:55 AM 75.2 °F - N/A% 29.96 in 3.5 mi Calm Calm - N/A   Overcast
3:15 AM 75.2 °F - N/A% 29.95 in 3.0 mi Calm Calm - N/A   Mostly Cloudy
3:35 AM 73.4 °F - N/A% 29.94 in 2.5 mi Calm Calm - N/A   Clear
3:55 AM 73.4 °F - N/A% 29.94 in 2.5 mi Calm Calm - N/A   Clear
4:15 AM 73.4 °F - N/A% 29.93 in 2.5 mi Calm Calm - N/A   Clear
4:35 AM 73.4 °F - N/A% 29.94 in 4.0 mi Calm Calm - N/A   Clear
4:55 AM 73.4 °F - N/A% 29.95 in 3.5 mi Calm Calm - N/A   Clear
5:15 AM 73.4 °F - N/A% 29.96 in 3.0 mi Calm Calm - N/A   Clear
5:35 AM 73.4 °F - N/A% 29.96 in 2.5 mi Calm Calm - N/A   Scattered Clouds
5:55 AM 73.4 °F - N/A% 29.96 in 3.0 mi Calm Calm - N/A   Scattered Clouds
6:15 AM 73.4 °F - N/A% 29.96 in 3.0 mi Calm Calm - N/A   Clear
6:35 AM 73.4 °F - N/A% 29.96 in 3.0 mi Calm Calm - N/A   Scattered Clouds
6:55 AM 73.4 °F - N/A% 29.97 in 3.5 mi Calm Calm - N/A   Mostly Cloudy
7:15 AM 75.2 °F - N/A% 29.98 in 4.0 mi Calm Calm - N/A   Haze
7:35 AM 75.2 °F 75.2 °F 100% 29.98 in 5.0 mi Calm Calm - N/A   Overcast
7:55 AM 75.2 °F 75.2 °F 100% 29.98 in 5.0 mi Calm Calm - N/A   Mostly Cloudy
8:15 AM 77.0 °F 77.0 °F 100% 29.99 in 5.0 mi Calm Calm - N/A   Mostly Cloudy
8:35 AM 78.8 °F 77.0 °F 94% 29.99 in 5.0 mi South 3.5 mph - N/A Rain Rain
8:55 AM - - N/A% 29.98 in 1.2 mi Calm Calm - 0.22 in Rain Rain
9:15 AM 77.0 °F 77.0 °F 100% 29.99 in 7.0 mi Calm Calm - N/A Rain Rain
9:35 AM 77.0 °F 77.0 °F 100% 30.00 in 7.0 mi West 4.6 mph - 0.01 in Rain Light Rain
9:55 AM 75.2 °F 75.2 °F 100% 30.01 in 7.0 mi West 6.9 mph - 0.02 in Rain Light Rain
10:15 AM 75.2 °F 75.2 °F 100% 29.99 in 7.0 mi WNW 3.5 mph - 0.04 in Rain Light Rain
10:35 AM 75.2 °F 75.2 °F 100% 29.99 in 1.0 mi Calm Calm - 0.21 in Rain Heavy Rain
10:55 AM 75.2 °F - N/A% 30.00 in 3.5 mi Calm Calm - 0.43 in Rain Light Rain
11:15 AM 75.2 °F 75.2 °F 100% 30.01 in 10.0 mi Calm Calm - N/A   Overcast
11:35 AM 75.2 °F 75.2 °F 100% 30.01 in 7.0 mi SE 3.5 mph - N/A   Overcast
11:55 AM 77.0 °F 77.0 °F 100% 30.00 in 10.0 mi Calm Calm - N/A   Overcast
12:15 PM 77.0 °F 75.2 °F 94% 30.00 in 10.0 mi Calm Calm - N/A   Mostly Cloudy
12:35 PM 77.0 °F 77.0 °F 100% 30.00 in 10.0 mi Calm Calm - N/A   Overcast
12:55 PM 77.0 °F 77.0 °F 100% 30.01 in 10.0 mi East 4.6 mph - N/A   Overcast
1:15 PM 78.8 °F 77.0 °F 94% 30.02 in 10.0 mi SSE 3.5 mph - N/A   Overcast
1:35 PM 77.0 °F 75.2 °F 94% 30.02 in 10.0 mi SSE 4.6 mph - N/A Rain Light Rain
1:55 PM 75.2 °F 75.2 °F 100% 30.01 in 2.5 mi SSE 3.5 mph - 0.03 in Rain Rain
2:15 PM 75.2 °F 75.2 °F 100% 30.00 in 2.5 mi SSE 3.5 mph - 0.06 in Rain Rain
2:35 PM 75.2 °F - N/A% 29.98 in 5.0 mi SSE 4.6 mph - 0.08 in Rain Light Rain
2:55 PM 75.2 °F - N/A% 29.98 in 4.0 mi SSE 4.6 mph - 0.11 in Rain Light Rain
3:15 PM 75.2 °F - N/A% 29.98 in 5.0 mi Calm Calm - 0.03 in Rain Rain
3:35 PM 77.0 °F - N/A% 29.97 in 4.0 mi SSE 3.5 mph - 0.09 in Rain Light Rain
3:55 PM 77.0 °F 77.0 °F 100% 29.97 in 10.0 mi Calm Calm - 0.09 in Rain Light Rain
4:15 PM 78.8 °F 75.2 °F 89% 29.96 in 10.0 mi ENE 4.6 mph - N/A   Scattered Clouds
4:35 PM 78.8 °F 77.0 °F 94% 29.96 in 10.0 mi East 4.6 mph - N/A   Mostly Cloudy
4:55 PM 78.8 °F 77.0 °F 94% 29.98 in 10.0 mi East 3.5 mph - N/A   Overcast
5:15 PM 77.0 °F 77.0 °F 100% 29.96 in 10.0 mi East 4.6 mph - N/A   Overcast
5:35 PM 77.0 °F 77.0 °F 100% 29.97 in 10.0 mi SE 3.5 mph - N/A   Mostly Cloudy
5:55 PM 77.0 °F 77.0 °F 100% 29.96 in 10.0 mi Calm Calm - N/A   Scattered Clouds
6:15 PM 78.8 °F 77.0 °F 94% 29.97 in 10.0 mi ESE 5.8 mph - N/A Rain Light Rain
6:35 PM 77.0 °F 77.0 °F 100% 29.96 in 7.0 mi ESE 4.6 mph - N/A   Overcast
6:55 PM 77.0 °F 77.0 °F 100% 29.96 in 10.0 mi Calm Calm - N/A   Mostly Cloudy
7:15 PM 77.0 °F 77.0 °F 100% 29.96 in 10.0 mi Calm Calm - 0.01 in   Mostly Cloudy
7:35 PM 77.0 °F 77.0 °F 100% 29.96 in 10.0 mi Calm Calm - 0.01 in   Overcast
7:55 PM 77.0 °F 77.0 °F 100% 29.95 in 10.0 mi ESE 3.5 mph - 0.01 in   Mostly Cloudy
8:15 PM 75.2 °F 75.2 °F 100% 29.96 in 7.0 mi Calm Calm - N/A   Mostly Cloudy
8:35 PM 75.2 °F - N/A% 29.97 in 7.0 mi Calm Calm - N/A   Overcast
8:55 PM 75.2 °F - N/A% 29.97 in 7.0 mi Calm Calm - N/A   Overcast
9:15 PM 75.2 °F - N/A% 29.98 in 7.0 mi Calm Calm - N/A   Haze
9:35 PM 75.2 °F - N/A% 29.99 in 7.0 mi Calm Calm - N/A   Scattered Clouds
9:55 PM 75.2 °F - N/A% 29.99 in 5.0 mi Calm Calm - N/A   Haze
10:15 PM 73.4 °F - N/A% 29.98 in 4.0 mi Calm Calm - N/A   Haze
10:35 PM 73.4 °F - N/A% 29.98 in 4.0 mi Calm Calm - N/A   Haze
10:55 PM 73.4 °F - N/A% 29.98 in 3.5 mi Calm Calm - N/A   Scattered Clouds
11:15 PM 73.4 °F - N/A% 29.98 in 3.5 mi Calm Calm - N/A   Clear
11:35 PM 73.4 °F - N/A% 29.98 in 3.5 mi Calm Calm - N/A   Scattered Clouds
11:55 PM 73.4 °F - N/A% 29.98 in 0.8 mi Calm Calm - N/A   Overcast